World > North America > United States > Ohio

Bainbridge, Ohio Regional Weather

Lat: 41.39N, Lon: 81.34W
Wx Zone: OHZ073
Warning FLW WEATHER ALERT - (More Info. Click Here) Warning
Feedback

Bainbridge, OH Regional Weather

Expires:201907220800;;443571
ASUS41 KCLE 220712
RWRCLE
OHIO REGIONAL WEATHER ROUNDUP
NATIONAL WEATHER SERVICE WILMINGTON, OH
300 AM EDT MON JUL 22 2019

NOTE: "FAIR" INDICATES FEW OR NO CLOUDS BELOW 12,000 FEET WITH NO
SIGNIFICANT WEATHER AND/OR OBSTRUCTIONS TO VISIBILITY.


OHZ036-037-039>041-045>050-054>059-063>069-073>076-082>088-220800-
  CENTRAL AND SOUTHEAST OHIO
  
CITY           SKY/WX    TMP DP  RH WIND       PRES   REMARKS
COLUMBUS       CLOUDY    74  72  93 SE6       29.88S                  
OSU AIRPORT    FAIR      74  73  97 S6        29.88S                  
BOLTON FIELD   CLOUDY    72  72 100 S3        29.89S                  
RICKENBACK AFB FAIR      72  71  98 CALM      29.88S                  
NEWARK         FAIR      73  71  93 W3        29.88F                  
MARION         CLOUDY    72  69  90 SE7       29.89F                  
LANCASTER      MOCLDY    73  70  90 S3        29.89F                  
ZANESVILLE     LGT RAIN  71  69  93 CALM      29.90F                  
NEW PHILLY     LGT RAIN  72  70  93 SE5       29.90F                  
$$
  

SKY/WX - Weather  TMP - Temperature  DP - Dew Point  RH - Relative Humidity
WIND - Wind Direction/Speed PRES - Barometric Pressure VSB - Visibility
WCI - Wind Chill Index E13G22 Wind - East Wind 13 mph/Gusts of 22 mph